Regional Weather Roundup
Issued by NWS Northern Indiana

Home | Current Version | Previous Version | Graphics & Text | Print | Product List | Glossary On
Versions: 1 2 3 4 5 6 7 8 9 10 11 12 13 14 15 16 17 18 19 20 21 22 23 24 25 26 27 28 29 30 31 32 33 34 35 36 37 38 39 40 41 42 43 44 45 46 47 48 49 50
000
ASUS43 KIWX 200936
RWRIWX

KIWX WEATHER ROUNDUP
NATIONAL WEATHER SERVICE NORTHERN INDIANA
500 AM EDT SAT SEP 20 2014

NOTE: "FAIR" INDICATES FEW OR NO CLOUDS BELOW 12,000 FEET WITH NO
SIGNIFICANT WEATHER AND/OR OBSTRUCTIONS TO VISIBILITY.

* THESE STATIONS ARE NOT UNDER NWS QUALITY CONTROL. THEY ALSO MAY NOT
  REPORT WEATHER SUCH AS PRECIPITATION OR FOG.

INZ001>027-201000-
NORTHERN INDIANA

CITY           SKY/WX    TMP DP  RH WIND       PRES   REMARKS
GARY*          MOCLDY    63  52  68 S8        29.95S
VALPARAISO     MOCLDY    56  50  80 S7        29.97F
MICHIGAN CITY* MOCLDY    59  48  67 SW13      29.97R
LAPORTE*       MOCLDY    55  50  83 S5        29.98S
KNOX*          PTCLDY    54  49  85 S6        29.97F
SOUTH BEND     MOCLDY    58  49  72 SW8       29.98F
GOSHEN         PTCLDY    55  49  80 S7        29.99F
MONTICELLO*    PTCLDY    54  51  89 S3        30.00S
LOGANSPORT*    PTCLDY    50  46  87 S6        30.02S
ROCHESTER*     PTCLDY    59  52  77 S6        30.01S
WARSAW*        PTCLDY    55  50  82 CALM      30.00F
ANGOLA*        CLEAR     54  48  82 S3        30.00S
FORT WAYNE     PTCLDY    52  48  86 S8        30.02S
HUNTINGTON*    CLEAR     55  50  84 S5        30.02S
PERU/GRISSOM   CLEAR     56  56 100 S6        30.01S
MARION*        CLEAR     51  47  89 S5        30.03S

$$
INZ028>050-201000-
CENTRAL INDIANA

CITY           SKY/WX    TMP DP  RH WIND       PRES   REMARKS
LAFAYETTE      CLEAR     53  50  89 CALM      30.01R
KOKOMO*        CLEAR     54  48  82 S7        30.03R
MUNCIE*        CLEAR     59  51  75 S6        30.03R
INDIANAPOLIS   CLEAR     58  51  78 S5        30.02R

$$
MIZ043>046-050>051-056>058-064>065-071>073-077>080-201000-
SOUTHWEST LOWER MICHIGAN

CITY           SKY/WX    TMP DP  RH WIND       PRES   REMARKS
BATTLE CREEK   PTCLDY    56  48  74 S10       29.96F
BENTON HARBOR  MOCLDY    59  50  72 S10       29.93F
COLDWATER*     MOCLDY    58  50  74 SW8       29.98F
HILLSDALE*     CLEAR     57  50  78 SW6G16    29.99F
HOLLAND        CLOUDY    66  53  63 SW13      29.93R
GRAND RAPIDS   MOCLDY    62  50  64 S13       29.93F
KALAMAZOO      PTCLDY    57  49  74 S12       29.96F
STURGIS*       MOCLDY    54  50  87 S7        29.98S
THREE RIVERS*  FAIR      54  49  85 CALM      29.98R

$$
OHZ001>008-015>018-024>025-201000-
NORTHWEST OHIO

CITY           SKY/WX    TMP DP  RH WIND       PRES   REMARKS
WAUSEON*       FAIR      52  48  87 SW7       30.01R
DEFIANCE       CLEAR     53  46  77 SW6       30.01S
FINDLAY        CLEAR     56  50  80 S12       30.02S
TOLEDO EXPRESS CLEAR     52  47  83 S6        30.00F
TOLEDO METCALF CLEAR     52  46  80 S7        30.01S
LIMA           CLEAR     59  50  72 S9        30.04R

$$
AND FOR LAKE MICHIGAN COASTAL AND OPEN LAKE BUOY OBSERVATIONS

STATION/POSITION TEMP    WIND        PRES    VSBY  WAVE
                 AIR SEA DIR/SP/G                  HT/PER
                 (F)     (DEG/KT/KT) (MB)    (MI)  (FT/S)
CALUMET HARBOR    63     200/ 11/ 14 1012.3S
MICHIGAN CITY     63     160/ 16/ 21   N/A
SAINT JOSEPH      64     160/  9/ 18 1013.9F
SOUTH LAKE BUOY   65 64  200/ 21/ 25 1011.6R         4/ 5
4 MILES NW BRIDG  65 65  180/ 17/ 21   N/A           3/ 4
MICHIGAN CITY     64 65  200/ 17/ 21   N/A           3/ 3

$$
&&



USA.gov is the U.S. government's official web portal to all federal, state and local government web resources and services.